This demonstration page uses our WeatherBlox Daily Observations layout. Learn more.

Left ArrowRight Arrow

Hourly Observations for December 15, 2017

Temp ( °F °C ) Dew Point ( °F °C ) Humidity (%) Winds ( mph kmh ) Pressure ( in mb ) Visibility ( mi km ) Precip ( " mm )
12:15 am 00:15 Clear 30 -1 16 -9 55 55 NNE 3 6 30.15 1021 10 16 N/A
12:35 am 00:35 Clear 30 -1 16 -9 55 55 N N/A 30.15 1021 10 16 N/A
12:55 am 00:55 Clear 30 -1 14 -10 51 51 N N/A 30.15 1021 10 16 N/A
1:15 am 01:15 Clear 28 -2 14 -10 55 55 N N/A 30.15 1021 10 16 N/A
1:35 am 01:35 Clear 28 -2 18 -8 64 64 N N/A 30.15 1021 10 16 N/A
1:55 am 01:55 Clear 28 -2 18 -8 64 64 N N/A 30.15 1021 10 16 N/A
2:15 am 02:15 Clear 28 -2 18 -8 64 64 N N/A 30.15 1021 10 16 N/A
2:35 am 02:35 Clear 27 -3 19 -7 74 74 N N/A 30.15 1021 10 16 N/A
2:55 am 02:55 Clear 27 -3 18 -8 69 69 N N/A 30.15 1021 10 16 N/A
3:15 am 03:15 Partly Cloudy 27 -3 18 -8 69 69 N N/A 30.15 1021 10 16 N/A
3:35 am 03:35 Clear 25 -4 19 -7 80 80 N N/A 30.15 1021 10 16 N/A
3:55 am 03:55 Clear 23 -5 19 -7 86 86 N N/A 30.15 1021 10 16 N/A
4:15 am 04:15 Partly Cloudy 23 -5 19 -7 86 86 N N/A 30.15 1021 10 16 N/A
4:35 am 04:35 Cloudy 23 -5 21 -6 93 93 N N/A 30.15 1021 10 16 N/A
4:55 am 04:55 Cloudy 25 -4 21 -6 86 86 N N/A 30.15 1021 10 16 N/A
5:15 am 05:15 Cloudy 27 -3 21 -6 80 80 N N/A 30.12 1020 10 16 N/A
5:35 am 05:35 Cloudy 27 -3 19 -7 74 74 N N/A 30.12 1020 10 16 N/A
5:55 am 05:55 Cloudy 27 -3 21 -6 80 80 N N/A 30.15 1021 10 16 N/A
6:15 am 06:15 Cloudy 28 -2 18 -8 64 64 N N/A 30.12 1020 10 16 N/A
6:35 am 06:35 Cloudy 28 -2 19 -7 69 69 N N/A 30.12 1020 10 16 N/A
6:55 am 06:55 Cloudy 28 -2 19 -7 69 69 ESE 3 6 30.12 1020 10 16 N/A
7:15 am 07:15 Cloudy 28 -2 19 -7 69 69 N N/A 30.12 1020 10 16 N/A
7:35 am 07:35 Cloudy 28 -2 19 -7 69 69 N N/A 30.12 1020 10 16 N/A
7:55 am 07:55 Cloudy 28 -2 19 -7 69 69 ESE 5 7 30.12 1020 10 16 N/A
8:15 am 08:15 Cloudy 30 -1 19 -7 64 64 N N/A 30.12 1020 10 16 N/A
8:35 am 08:35 Cloudy 30 -1 19 -7 64 64 N N/A 30.09 1019 10 16 N/A
8:55 am 08:55 Cloudy 30 -1 19 -7 64 64 N N/A 30.12 1020 10 16 N/A
9:15 am 09:15 Cloudy 30 -1 19 -7 64 64 N N/A 30.12 1020 10 16 N/A
9:35 am 09:35 Cloudy 30 -1 19 -7 64 64 N N/A 30.09 1019 10 16 N/A
9:55 am 09:55 Cloudy 30 -1 19 -7 64 64 N N/A 30.12 1020 10 16 N/A
10:15 am 10:15 Cloudy 30 -1 19 -7 64 64 N N/A 30.09 1019 10 16 N/A
10:35 am 10:35 Cloudy 30 -1 19 -7 64 64 N N/A 30.09 1019 10 16 N/A
10:55 am 10:55 Cloudy 30 -1 19 -7 64 64 N N/A 30.09 1019 10 16 N/A
11:15 am 11:15 Cloudy 30 -1 19 -7 64 64 N N/A 30.06 1018 10 16 N/A
11:35 am 11:35 Cloudy 30 -1 19 -7 64 64 N N/A 30.06 1018 10 16 N/A
11:55 am 11:55 Cloudy 30 -1 19 -7 64 64 NE 3 6 30.03 1017 10 16 N/A
12:15 pm 12:15 Cloudy with Light Snow 30 -1 21 -6 69 69 N N/A 30.03 1017 7 11 N/A
12:35 pm 12:35 Cloudy with Light Snow 30 -1 21 -6 69 69 N N/A 30.00 1016 5 8 N/A
12:55 pm 12:55 Cloudy with Light Snow 30 -1 23 -5 75 75 N N/A 30.00 1016 7 11 N/A
1:15 pm 13:15 Cloudy 30 -1 23 -5 75 75 N N/A 30.00 1016 10 16 N/A
1:35 pm 13:35 Cloudy 30 -1 25 -4 80 80 S 5 7 29.97 1015 10 16 N/A
1:55 pm 13:55 Cloudy with Light Snow 30 -1 27 -3 86 86 N N/A 29.97 1015 4 6 N/A
2:15 pm 14:15 Cloudy with Light Snow 30 -1 27 -3 86 86 N N/A 29.97 1015 5 8 N/A
2:35 pm 14:35 Cloudy with Light Snow 28 -2 27 -3 93 93 N N/A 29.97 1015 3 5 N/A
2:55 pm 14:55 Cloudy with Light Snow 28 -2 27 -3 93 93 N N/A 29.97 1015 7 11 N/A
3:15 pm 15:15 Cloudy with Light Snow 28 -2 27 -3 93 93 N N/A 29.97 1015 3 5 N/A
3:35 pm 15:35 Cloudy 28 -2 27 -3 93 93 N N/A 29.97 1015 10 16 N/A
3:55 pm 15:55 Cloudy 30 -1 27 -3 86 86 N N/A 29.97 1015 10 16 N/A
4:15 pm 16:15 Mostly Cloudy 28 -2 27 -3 93 93 N N/A 29.97 1015 10 16 N/A
4:35 pm 16:35 Partly Cloudy 28 -2 27 -3 93 93 N N/A 29.97 1015 10 16 N/A
4:55 pm 16:55 Clear 28 -2 27 -3 93 93 N N/A 29.97 1015 10 16 N/A
5:15 pm 17:15 Clear 28 -2 27 -3 93 93 N N/A 29.97 1015 10 16 N/A
5:35 pm 17:35 Clear 27 -3 27 -3 100 100 N N/A 29.97 1015 10 16 N/A
5:55 pm 17:55 Clear 27 -3 27 -3 100 100 N N/A 29.97 1015 10 16 N/A
6:15 pm 18:15 Partly Cloudy 25 -4 25 -4 100 100 N N/A 30.00 1016 10 16 N/A
6:35 pm 18:35 Mostly Cloudy 23 -5 23 -5 100 100 N N/A 30.00 1016 10 16 N/A
6:55 pm 18:55 Mostly Cloudy 25 -4 25 -4 100 100 SW 5 7 30.00 1016 10 16 N/A
7:15 pm 19:15 Partly Cloudy 25 -4 25 -4 100 100 WSW 3 6 30.00 1016 10 16 N/A
7:35 pm 19:35 Clear 23 -5 23 -5 100 100 WSW 3 6 30.00 1016 7 11 N/A
7:55 pm 19:55 Partly Cloudy 23 -5 23 -5 100 100 N N/A 30.03 1017 10 16 N/A
8:15 pm 20:15 Mostly Cloudy 23 -5 23 -5 100 100 SW 6 9 30.03 1017 10 16 N/A
8:35 pm 20:35 Cloudy 23 -5 23 -5 100 100 WSW 3 6 30.03 1017 10 16 N/A
8:55 pm 20:55 Cloudy 25 -4 25 -4 100 100 SW 3 6 30.03 1017 10 16 N/A
9:15 pm 21:15 Cloudy 25 -4 25 -4 100 100 SW 3 6 30.03 1017 7 11 N/A
9:35 pm 21:35 Cloudy 25 -4 25 -4 100 100 N N/A 30.03 1017 7 11 N/A
9:55 pm 21:55 Cloudy 25 -4 25 -4 100 100 SSW 5 7 30.03 1017 7 11 N/A
10:15 pm 22:15 Cloudy 23 -5 23 -5 100 100 SSW 6 9 30.03 1017 7 11 N/A
10:35 pm 22:35 Cloudy 23 -5 23 -5 100 100 WSW 5 7 30.03 1017 10 16 N/A
10:55 pm 22:55 Cloudy 25 -4 25 -4 100 100 SW 5 7 30.03 1017 10 16 N/A
11:15 pm 23:15 Cloudy 27 -3 25 -4 93 93 WSW 6 9 30.03 1017 10 16 N/A
11:35 pm 23:35 Cloudy 27 -3 27 -3 100 100 WSW 7 11 30.03 1017 10 16 N/A
11:55 pm 23:55 Cloudy 28 -2 27 -3 93 93 WSW 7 11 30.06 1018 10 16 N/A

Powered by AerisWeather